Wind_Speed
14 14 15 14 14 14 14 14 14 15 15 15 15 14 15 17 16 15 16 15 15 16 15 15 16 16 16 16 16 16 18 19 19 20 24 23 21 21 17 12 11 14 16 16 16 15 12 11 10 9 10 10 9 10 11 10 10 7 3 3 3 4 5 4 6 6 3 2 3 8 14 5 6 7 6 7 8 12 14 11 15 15 9 19 19 23 37 33
15 14 15 15 14 14 14 14 15 15 15 15 16 16 15 16 17 16 16 16 14 16 16 15 15 16 16 16 15 14 16 17 19 22 23 21 21 19 19 19 15 15 17 17 17 16 14 11 9 8 10 10 8 9 11 11 11 6 3 3 5 5 5 5 6 5 2 3 7 12 13 6 8 7 2 2 2 7 12 11 13 13 15 20 20 32 38 33
16 15 15 15 15 14 15 15 15 15 16 16 16 17 15 14 17 17 16 16 15 14 17 16 15 16 16 16 14 12 13 14 18 22 21 21 22 18 19 22 21 19 18 18 16 15 14 10 8 9 11 10 9 10 10 10 10 7 4 3 7 5 4 7 8 9 9 9 9 11 12 11 12 6 3 5 3 3 8 12 15 16 21 23 27 38 37 34
18 16 16 16 16 15 15 16 16 16 16 16 16 17 16 14 16 18 16 16 16 14 15 17 17 16 16 15 12 10 11 12 14 19 19 18 17 19 21 22 23 23 21 19 16 13 12 9 8 10 12 6 7 10 8 10 9 6 6 4 5 4 4 9 11 13 15 13 8 8 10 12 12 6 5 11 7 2 7 19 23 24 29 30 36 41 37 35
19 18 17 17 16 16 16 16 16 17 17 17 17 17 17 15 15 17 16 15 17 15 13 16 18 18 17 14 10 6 4 6 6 12 13 12 14 19 22 23 24 25 24 21 16 12 11 11 9 10 10 3 6 6 5 13 11 4 5 6 6 4 3 8 10 12 14 12 6 5 7 10 11 5 8 13 6 4 11 19 25 31 34 36 42 41 37 36
20 20 20 19 18 17 16 16 16 17 18 18 17 17 17 17 16 17 16 15 17 16 13 15 18 18 17 14 9 4 3 2 4 10 10 7 10 17 21 23 25 27 26 22 17 14 13 13 11 10 8 2 5 5 4 12 10 3 4 6 10 10 7 10 14 15 13 9 5 4 7 10 11 5 8 10 5 6 13 17 22 29 34 39 43 41 39 37
20 21 21 21 21 19 18 17 17 17 18 18 18 18 17 17 17 16 16 15 17 17 13 13 17 17 17 15 9 6 10 12 9 11 8 3 5 11 16 21 25 29 28 24 20 17 15 15 13 10 7 3 5 6 5 7 7 5 4 4 9 13 11 14 18 18 16 12 11 10 9 12 13 5 3 5 7 7 13 18 23 28 32 39 42 40 39 37
21 21 21 20 20 20 20 19 18 17 18 18 19 19 17 17 18 17 15 15 17 17 13 12 15 16 16 15 9 8 15 22 17 13 9 3 5 7 8 17 25 29 29 26 22 20 16 15 16 11 5 3 5 6 6 4 3 5 6 4 6 10 11 15 17 18 18 17 15 10 9 12 8 2 3 1 3 11 17 21 25 28 31 37 40 38 37 35
22 22 22 21 20 20 21 22 21 19 18 18 19 18 18 18 19 19 17 15 15 16 14 11 14 16 16 14 9 9 18 27 22 19 15 9 6 8 6 12 25 28 28 26 21 19 16 15 18 13 5 5 6 4 7 6 3 6 9 8 6 10 13 14 14 15 16 15 10 3 5 7 4 6 3 1 8 16 20 24 28 30 32 35 37 36 35 34
22 22 23 22 21 21 21 21 23 22 20 18 18 18 17 18 20 20 17 15 14 14 14 12 12 14 15 12 6 5 17 21 19 23 22 18 14 10 8 7 21 25 25 25 22 20 18 15 17 14 4 4 7 4 6 7 4 6 9 10 11 14 16 12 11 15 13 11 9 4 3 8 7 3 1 4 12 19 23 27 30 31 32 34 35 34 33 33
22 22 22 23 22 22 22 21 22 23 22 19 18 18 17 19 21 20 17 15 14 14 14 13 12 13 14 12 7 10 15 12 12 19 23 22 19 13 8 5 15 23 23 24 23 21 19 13 12 12 4 2 5 3 5 6 4 4 3 5 9 11 12 10 10 15 9 7 9 8 5 6 3 2 4 10 18 24 25 27 30 31 30 30 31 32 32 32
22 22 22 22 23 22 22 22 21 22 23 20 19 19 19 21 21 20 19 17 15 14 14 13 11 13 14 15 20 23 16 8 9 13 16 19 18 15 9 6 11 19 21 22 22 21 20 14 9 10 5 3 4 2 2 4 3 4 1 2 6 4 5 8 8 9 5 4 6 9 4 3 4 2 9 17 23 26 24 25 28 29 27 26 28 30 31 30
22 22 22 22 22 22 22 22 21 21 23 23 21 21 22 22 21 20 21 19 14 12 14 12 11 14 13 18 29 28 17 12 15 15 12 13 16 16 12 9 10 15 19 21 21 20 19 15 11 11 6 3 3 1 1 3 2 4 0 2 3 5 4 6 5 4 5 5 6 11 2 5 5 4 16 23 27 27 22 23 27 28 26 25 27 29 29 29
22 22 22 22 22 22 22 22 22 21 21 25 24 22 22 22 22 23 21 19 15 12 14 12 11 14 13 23 31 25 21 20 22 19 12 12 15 15 14 11 11 13 16 19 18 17 16 13 11 12 9 6 4 3 4 5 2 2 1 0 1 1 4 7 2 5 5 5 8 11 1 5 4 7 22 26 31 32 24 25 28 28 26 26 28 29 29 28
22 22 21 21 22 22 21 21 22 21 20 25 25 24 24 23 25 26 23 19 14 12 12 11 12 12 13 26 29 16 14 19 21 21 17 19 18 14 13 13 12 12 14 16 14 13 13 11 10 9 7 9 7 3 4 4 3 1 2 2 2 3 5 8 3 8 6 3 6 8 2 4 2 10 23 27 30 29 24 26 28 29 28 27 29 30 29 27
22 22 21 21 21 21 21 21 21 20 20 23 26 26 26 25 27 28 25 20 13 10 10 9 10 10 9 15 16 9 11 14 14 17 18 21 21 16 13 12 12 12 12 12 10 9 9 9 10 8 6 4 3 3 3 3 4 3 2 3 1 4 2 5 3 6 4 1 1 3 4 2 2 10 20 23 25 24 22 26 28 30 29 28 29 30 29 27
24 23 22 21 21 21 21 20 20 20 19 21 25 28 27 28 29 28 24 18 12 9 9 7 5 8 11 11 10 10 10 9 10 11 11 15 18 18 16 13 11 12 12 9 7 7 9 9 8 6 6 4 4 6 2 4 5 3 1 2 2 3 3 2 3 3 1 3 1 2 3 2 4 10 18 21 24 23 22 24 28 29 27 27 29 29 28 27
25 25 23 21 21 21 21 20 19 19 19 20 24 27 27 26 24 20 16 11 8 7 7 9 4 2 10 13 12 10 7 7 7 7 8 11 16 18 17 15 12 12 11 6 5 9 10 9 6 3 3 5 4 6 6 6 5 3 2 4 1 1 2 2 3 2 2 3 4 5 2 1 4 10 17 25 27 25 22 24 28 27 23 21 21 23 26 27
25 25 24 23 21 21 21 19 18 18 18 19 22 25 22 17 14 9 4 10 12 7 3 11 17 7 5 8 7 7 8 10 9 7 7 9 15 18 17 17 13 12 10 5 5 11 11 5 3 4 5 7 6 7 7 5 7 8 5 5 4 3 2 4 4 4 0 5 4 7 5 3 7 8 12 22 27 25 22 22 23 22 20 17 16 18 23 26
24 24 24 23 22 21 21 19 18 18 17 18 21 22 16 9 6 5 2 10 15 14 7 10 24 20 14 12 7 7 8 9 10 8 5 6 13 16 17 17 12 9 7 5 5 10 12 5 4 7 5 6 7 7 7 5 7 8 5 4 4 4 3 5 4 5 1 4 1 5 6 6 11 10 10 19 22 19 18 17 18 21 23 23 25 25 21 23
23 23 23 23 22 21 20 19 19 17 16 17 18 18 13 7 3 3 4 8 16 21 20 18 22 25 25 22 17 15 12 9 10 9 6 6 11 13 16 14 8 5 5 6 5 7 11 7 6 6 6 8 8 8 8 5 5 6 5 4 2 2 3 5 3 5 3 2 3 1 6 6 10 11 11 16 16 13 17 19 19 23 24 26 32 30 21 20
22 21 21 22 21 20 19 19 18 15 15 17 17 17 14 9 5 6 8 9 17 23 26 27 27 29 34 32 28 23 12 8 11 12 9 9 13 12 13 12 7 4 5 5 5 5 6 6 6 7 6 8 7 8 9 6 5 4 3 5 2 1 3 5 4 5 2 3 3 2 5 5 8 9 10 13 15 17 24 27 26 27 24 24 29 28 23 22
22 20 20 22 20 19 18 18 17 15 15 16 17 16 12 8 7 9 11 8 16 23 23 27 30 34 37 33 30 23 12 8 12 14 11 12 15 14 13 10 6 6 6 6 6 6 5 5 7 8 8 9 6 6 10 7 5 4 4 5 2 2 1 1 3 4 2 1 2 4 4 3 5 3 6 12 17 19 25 24 18 18 17 15 18 22 27 27
21 20 20 21 19 19 17 17 17 16 15 16 16 14 9 8 7 9 9 6 10 16 18 23 27 33 37 30 22 19 18 15 13 14 13 14 15 12 11 9 7 7 8 8 8 7 2 4 10 10 9 10 7 6 9 6 4 3 4 5 3 2 3 3 2 3 3 4 2 5 3 5 4 3 6 9 10 11 16 16 13 13 14 14 14 14 17 20
20 19 19 19 18 18 17 17 17 15 15 15 13 8 6 8 7 4 4 4 6 7 8 11 17 25 29 22 14 14 15 16 18 17 12 14 16 10 7 9 9 7 9 8 7 5 3 4 12 12 7 9 8 5 7 7 4 3 4 6 7 6 5 3 3 4 5 5 2 4 2 5 5 5 8 7 6 7 10 12 12 13 16 21 23 21 19 16
20 19 19 18 17 16 15 15 14 13 12 10 6 5 5 7 6 3 3 2 5 3 1 4 8 11 13 14 16 13 5 9 20 23 16 13 16 11 5 7 6 6 8 7 3 3 3 3 9 10 8 9 8 5 7 8 6 3 5 7 8 7 6 3 1 3 3 2 3 3 4 4 5 5 7 7 9 11 10 8 9 14 18 23 26 29 29 21
19 18 18 17 16 14 12 11 10 10 9 5 3 7 8 6 2 5 3 2 4 3 4 4 6 4 6 14 23 16 2 5 13 20 22 16 16 14 7 5 5 4 6 5 3 3 6 7 6 7 9 8 7 6 6 8 8 3 6 10 9 7 7 5 4 3 1 3 4 4 4 2 4 6 5 5 9 11 11 9 9 14 20 22 24 27 25 19
18 17 16 16 15 13 13 12 12 14 13 8 8 11 10 5 5 8 3 1 2 3 3 4 5 3 3 14 27 17 2 3 5 13 23 19 16 13 7 6 6 7 7 7 6 2 5 10 7 7 8 6 5 6 8 10 6 5 7 10 9 8 7 5 4 2 1 1 5 5 2 3 5 5 2 4 8 10 10 11 10 16 21 22 23 25 25 22
16 16 15 15 14 12 13 14 15 17 15 10 11 10 8 6 7 6 1 1 2 1 2 5 5 4 7 13 20 15 4 1 3 10 20 19 18 10 3 7 7 8 7 5 6 2 2 12 13 9 6 5 6 7 11 11 4 4 7 7 5 5 5 4 5 3 1 1 6 6 2 3 4 4 2 5 8 11 9 9 12 17 22 23 25 27 29 29
15 14 13 14 14 11 11 12 16 16 11 9 11 9 8 5 5 2 1 1 1 1 2 5 5 6 11 9 8 10 6 2 1 12 16 15 19 11 3 7 7 7 4 3 6 5 1 9 14 8 5 7 8 7 10 12 7 6 8 7 6 4 3 3 2 3 3 3 7 6 5 4 3 4 4 5 7 12 10 8 11 16 20 25 29 32 32 30
14 13 12 13 12 10 9 10 13 13 8 6 9 6 5 3 2 2 2 1 3 1 2 2 3 7 10 6 3 6 5 3 1 10 10 9 13 9 4 7 5 5 4 2 5 5 3 5 5 5 10 11 8 5 7 10 9 8 5 5 5 2 3 4 4 2 3 6 6 3 6 6 4 5 5 7 7 11 13 10 10 13 18 27 32 31 31 29
13 13 12 13 12 10 9 10 13 11 6 5 8 2 3 2 2 2 3 3 2 0 4 3 2 4 6 3 1 5 4 1 2 6 7 7 7 6 5 6 5 5 6 4 4 3 2 1 2 2 12 14 8 4 4 5 7 7 4 6 5 1 1 1 2 1 4 6 3 1 4 4 5 5 5 8 6 6 12 14 18 21 23 29 32 30 29 30
14 14 13 13 12 10 10 10 12 10 6 7 5 1 2 2 2 3 3 3 2 2 6 4 3 2 5 3 1 5 3 2 4 5 6 7 6 4 4 4 5 6 4 4 5 3 1 4 4 1 5 11 11 7 5 4 6 8 5 7 6 4 4 5 4 2 3 4 2 1 2 2 4 2 3 4 3 4 2 6 15 26 28 30 32 32 32 32
10 12 12 11 10 10 9 9 11 9 7 6 2 2 3 2 1 1 1 3 4 5 6 6 7 4 6 5 2 5 3 3 4 6 6 6 7 6 5 4 6 5 4 5 4 5 4 4 5 4 2 7 10 7 6 6 6 5 3 5 5 4 6 5 4 3 4 3 2 1 2 2 2 1 4 3 4 8 11 10 7 9 17 27 30 30 34 34
9 9 10 9 7 7 7 8 8 7 5 3 1 2 3 2 0 0 1 3 4 5 9 10 6 1 4 3 2 6 5 3 3 6 6 7 6 6 5 4 5 4 5 6 2 3 6 5 5 6 6 7 8 6 7 8 5 3 3 5 4 5 5 3 3 5 4 2 2 2 3 2 3 1 2 3 6 7 9 10 12 7 3 19 28 27 34 36
9 8 9 8 6 6 6 5 5 6 3 1 1 2 3 1 0 0 3 4 3 5 11 9 3 3 1 1 2 5 5 2 4 4 3 5 5 5 5 3 4 5 5 6 3 2 5 3 5 4 7 7 9 10 7 7 6 1 3 5 4 5 7 5 2 1 4 3 4 1 0 3 1 1 1 7 6 6 7 8 15 14 7 8 18 20 30 35
12 9 8 6 3 5 4 4 5 6 4 2 2 2 2 1 1 2 2 4 2 4 7 4 2 3 1 0 1 4 5 2 2 3 3 4 4 5 6 4 4 6 5 5 3 2 5 3 4 5 7 7 11 14 8 7 9 5 4 6 3 3 3 4 2 2 3 3 4 1 1 3 1 0 3 8 7 5 7 7 13 17 11 10 11 12 22 31
16 11 6 2 1 3 4 7 6 6 4 2 3 4 2 2 2 3 1 2 2 4 3 2 1 2 2 1 2 2 5 3 1 2 4 3 2 5 8 5 4 7 8 5 2 2 5 3 4 6 9 6 5 9 6 5 6 5 6 6 4 3 2 1 3 2 2 3 3 2 1 3 3 3 4 8 9 8 9 8 11 14 14 16 17 15 19 28
15 8 4 6 5 5 7 8 7 7 5 1 3 3 2 3 3 5 5 2 2 4 3 3 3 3 2 1 1 2 2 4 3 1 3 2 1 4 9 7 4 8 10 7 4 3 4 4 3 5 7 6 4 4 7 6 1 4 7 6 3 3 3 2 3 3 4 3 3 2 1 2 4 5 6 9 11 12 12 12 11 13 18 22 24 26 25 27
13 5 5 10 3 8 10 10 8 6 3 1 2 1 2 3 4 7 7 5 2 3 2 4 5 3 2 2 1 2 2 3 4 2 1 2 1 2 7 8 6 7 9 7 5 2 2 3 2 4 2 6 5 5 8 8 4 5 6 5 3 2 2 2 2 1 4 4 3 1 2 4 5 3 7 10 11 11 12 12 11 13 20 23 25 31 31 24
10 3 5 8 5 13 12 10 6 2 2 2 1 1 2 3 4 6 8 8 4 3 2 5 4 2 2 3 3 2 2 2 2 2 0 2 3 1 6 8 9 8 6 5 6 3 2 2 2 1 2 5 5 4 7 10 8 7 6 5 5 4 4 4 3 1 3 3 3 3 3 5 4 3 4 8 8 6 8 11 12 15 21 23 21 24 28 27
6 3 5 6 6 13 10 6 2 2 2 2 3 3 4 4 3 4 6 7 3 1 2 3 3 2 2 2 3 2 1 2 2 2 1 3 4 3 7 12 15 13 8 5 5 4 3 3 3 2 4 5 5 3 7 12 10 7 6 5 4 4 5 6 5 3 3 2 1 3 1 4 4 3 2 5 8 8 10 14 16 18 22 24 23 22 26 31
6 5 5 2 7 11 6 2 1 2 2 4 5 5 5 3 2 3 4 3 2 1 2 3 3 3 2 2 2 2 1 0 2 3 1 3 5 5 9 16 18 15 8 4 4 4 3 3 3 1 3 2 3 3 2 8 9 6 5 6 6 5 4 5 5 4 4 3 1 2 1 4 3 2 2 8 12 13 15 17 19 20 21 24 27 28 29 30
9 8 3 3 10 10 3 1 1 2 3 4 4 4 5 3 3 2 2 1 1 2 2 3 3 3 2 2 2 2 2 0 1 2 1 2 4 5 10 16 16 11 7 7 7 5 4 1 2 2 2 2 1 1 2 3 6 4 5 6 7 6 5 3 3 3 2 5 5 4 3 4 2 2 5 9 12 13 15 19 21 22 24 26 28 29 28 28
8 4 2 5 12 12 4 3 0 1 2 2 3 3 3 3 3 5 5 4 2 2 2 4 5 5 6 3 1 2 2 1 1 1 1 1 3 2 7 12 13 8 7 13 15 11 5 3 3 4 4 4 5 5 4 4 4 2 4 7 7 8 9 5 3 4 4 4 5 5 4 3 1 5 8 8 10 12 15 21 23 24 27 29 28 28 27 27
4 1 3 3 9 11 7 6 3 1 1 1 2 3 2 2 3 5 6 4 4 5 5 7 7 6 7 4 0 2 3 1 1 2 2 2 3 1 2 5 10 11 10 14 19 13 3 2 5 6 6 6 6 7 5 4 5 3 4 9 9 9 10 7 5 5 5 4 4 4 4 5 5 7 9 10 11 11 13 18 23 25 28 28 29 30 30 30
3 2 2 2 4 6 6 8 5 2 2 1 1 2 2 2 3 3 2 2 5 6 6 7 7 4 4 3 1 1 3 3 2 1 2 2 3 3 1 3 6 10 11 13 17 10 4 2 6 6 6 6 5 6 4 2 6 7 7 9 8 8 9 8 6 6 6 6 4 6 5 9 8 8 10 12 13 10 11 17 24 26 27 29 30 31 30 30
3 3 1 1 1 2 2 5 4 4 6 4 1 2 3 3 3 2 2 3 6 6 4 3 4 5 7 4 2 0 3 4 3 2 2 2 2 4 2 2 2 3 6 10 12 7 5 4 5 5 5 4 2 4 4 2 3 4 8 10 9 10 11 10 7 7 8 8 6 7 11 10 9 12 13 12 14 14 15 20 26 28 29 29 30 29 28 28
4 4 3 3 3 3 3 4 3 4 6 5 2 2 2 3 4 3 2 2 4 4 5 2 1 3 5 1 4 2 2 1 3 3 2 3 3 2 2 1 1 1 3 8 8 4 4 4 5 6 5 1 3 4 2 5 4 4 4 6 7 10 11 9 7 6 7 5 3 9 12 5 2 8 9 10 16 20 22 25 28 29 30 29 29 29 29 29
8 6 6 6 5 5 5 4 3 3 4 4 3 3 2 3 5 4 2 3 2 2 3 3 4 3 2 3 4 1 4 3 1 3 2 3 3 2 2 1 2 4 3 5 5 3 2 3 3 6 4 1 5 7 3 5 7 6 4 3 2 5 5 4 5 5 5 4 3 8 9 2 1 7 11 16 22 24 24 26 27 28 30 30 29 29 30 30
13 11 8 6 4 2 3 3 2 2 2 2 3 2 2 4 4 4 4 5 7 6 3 2 3 3 3 4 3 2 5 4 5 6 5 2 2 2 2 1 2 2 3 1 3 3 3 1 0 4 4 2 4 6 5 5 8 7 5 5 4 3 3 2 3 4 5 7 8 8 5 3 4 10 14 17 21 21 21 24 26 27 30 32 30 29 30 31
18 17 12 6 3 1 2 2 2 3 2 3 5 4 3 4 4 4 5 4 6 6 3 2 1 2 3 3 2 4 8 9 9 10 9 7 7 9 6 3 2 2 1 1 1 2 5 4 1 3 4 1 3 4 3 5 7 3 1 3 2 1 2 1 1 1 4 8 10 5 5 6 8 12 14 15 17 19 22 25 28 28 29 30 32 32 32 32
Wind_Direction
317 317 317 317 318 320 322 323 323 322 324 321 319 319 319 319 318 319 322 320 316 317 314 309 310 312 312 305 292 281 275 271 267 262 257 253 251 247 242 236 222 223 230 227 224 225 222 222 231 229 220 209 208 206 199 192 171 164 129 147 211 195 203 187 184 203 191 310 303 324 342 352 330 353 70 87 106 111 125 130 148 174 187 182 182 161 160 162
312 312 313 316 317 318 319 321 321 322 323 322 321 318 315 318 319 318 319 320 314 313 315 312 311 311 310 307 299 289 279 275 272 262 256 260 262 252 238 232 228 226 228 228 227 226 224 226 230 220 202 187 187 190 190 189 179 172 109 172 222 196 209 203 195 223 230 293 311 315 328 338 322 324 157 107 58 107 106 108 131 144 154 170 170 159 162 163
309 308 309 311 314 317 318 319 321 320 320 320 319 318 317 319 321 317 315 318 315 310 313 315 312 311 310 309 304 295 288 285 279 266 258 263 262 252 238 228 224 222 223 224 224 227 228 229 234 211 188 180 181 178 181 182 184 195 154 191 240 204 230 261 252 263 273 284 304 311 320 318 318 324 185 150 146 159 131 136 136 139 156 166 164 162 164 164
306 306 306 307 309 312 314 317 320 318 317 318 318 319 319 320 318 313 311 313 314 311 310 312 311 310 312 314 309 299 306 308 284 262 253 258 258 249 238 225 218 216 217 219 219 223 221 213 223 201 183 184 182 175 179 180 178 196 179 198 232 180 223 259 260 271 280 286 285 299 315 312 323 345 170 145 129 240 195 172 166 169 169 164 163 164 165 167
304 304 304 304 305 306 309 313 316 317 317 318 319 319 319 319 315 310 311 311 311 310 307 308 306 307 311 314 308 294 329 335 269 231 230 235 240 242 234 222 214 211 211 213 213 212 200 191 193 184 181 182 169 171 197 190 177 180 213 225 225 187 216 255 266 275 280 283 280 300 307 300 323 4 152 152 140 243 215 190 183 183 178 170 166 165 168 172
300 301 303 305 305 304 305 309 312 314 317 318 317 318 319 319 315 312 313 311 308 306 306 303 303 306 308 310 304 268 222 243 184 183 196 203 227 239 234 220 209 207 207 206 208 202 188 181 179 175 174 156 168 178 199 195 187 206 254 240 234 227 232 262 272 275 278 282 280 279 285 298 318 347 157 184 237 244 212 198 191 186 180 173 166 166 172 176
293 295 298 302 305 305 303 306 308 310 315 317 315 314 317 317 314 312 310 309 303 303 307 298 302 305 304 305 293 266 245 236 199 176 188 201 266 257 239 220 205 205 204 202 204 196 185 182 184 175 154 138 187 198 198 194 193 212 252 247 242 238 237 258 267 272 276 272 274 274 283 299 299 298 153 234 258 214 193 190 186 178 171 167 164 169 175 177
287 288 290 293 298 302 303 303 304 306 310 314 316 313 313 312 311 312 308 305 302 304 306 297 303 303 302 307 303 296 258 236 215 201 211 234 317 314 253 213 201 203 202 203 203 194 187 187 190 177 156 183 177 188 196 197 203 205 237 253 255 251 250 265 271 275 277 276 279 274 272 284 280 179 88 341 187 166 170 174 176 170 165 165 167 172 175 179
286 286 285 286 288 291 296 300 300 303 306 308 314 314 312 310 312 316 310 303 303 306 305 298 299 298 301 304 310 303 256 240 231 226 228 235 271 323 309 206 195 200 201 203 202 195 191 192 195 185 177 198 166 174 178 177 234 211 223 239 252 259 262 270 273 277 281 282 278 266 270 253 155 106 60 84 151 156 161 168 172 168 165 168 172 175 176 182
288 286 285 285 284 285 287 293 297 300 303 304 310 313 312 310 311 316 313 306 304 303 301 293 288 294 299 296 304 279 251 247 245 238 237 240 249 276 307 220 190 195 201 202 200 197 196 195 199 193 193 190 177 204 171 166 228 224 224 237 244 254 263 268 271 279 283 286 263 197 213 203 155 82 334 159 157 160 161 166 171 168 169 173 176 178 179 185
291 289 287 285 283 285 285 288 291 296 300 301 304 309 310 309 312 314 311 305 300 298 294 286 285 286 287 284 258 240 246 248 245 241 238 241 246 252 271 238 189 190 196 201 200 201 201 198 194 192 208 199 178 194 186 192 241 269 251 248 260 258 265 263 261 275 274 282 256 185 169 207 193 335 188 166 161 161 159 162 169 169 173 178 180 182 184 188
292 290 289 287 285 284 284 284 284 290 295 296 299 303 307 309 310 310 307 300 291 292 289 281 281 278 281 275 248 239 244 244 250 247 234 236 240 238 242 228 194 189 193 198 201 204 205 201 185 187 198 186 177 142 197 226 261 296 306 240 295 327 288 252 240 261 230 244 230 147 110 266 252 251 170 163 161 160 157 158 167 171 178 185 186 188 188 191
293 292 290 288 287 284 284 284 282 284 289 293 297 301 305 305 306 310 309 301 288 286 285 276 274 274 277 266 251 250 257 256 260 254 228 231 232 224 227 220 198 192 195 198 199 203 207 207 201 207 212 161 163 119 289 311 312 290 299 163 316 13 325 258 222 212 187 234 197 145 118 276 265 202 161 160 161 159 158 161 168 173 181 190 193 193 193 194
295 293 292 290 289 286 285 284 281 279 283 290 294 299 302 301 304 311 311 301 285 273 275 269 265 270 267 263 264 272 273 263 257 249 230 233 231 218 217 214 201 196 198 200 202 206 209 212 216 231 247 235 247 320 335 339 353 263 218 151 352 100 272 285 266 160 170 258 192 148 171 253 251 170 159 164 165 161 160 166 171 177 185 193 197 197 197 198
295 292 292 292 290 287 286 285 281 277 280 287 292 298 300 299 306 313 308 297 280 259 261 260 256 264 270 273 279 287 274 260 249 244 244 246 242 225 212 210 206 201 198 202 205 208 208 208 211 224 248 244 248 318 356 343 359 37 188 274 359 157 258 304 289 173 174 263 185 147 172 240 252 171 165 167 170 165 160 166 174 182 188 194 198 199 200 201
296 293 290 291 291 288 287 285 281 278 280 286 293 296 298 303 309 308 299 287 271 245 243 254 256 255 270 286 289 275 253 252 247 251 255 252 245 231 213 209 209 205 203 207 210 210 203 198 197 199 207 215 184 115 48 332 324 357 170 216 226 155 238 310 278 209 188 67 162 162 158 185 269 184 171 169 172 169 164 170 177 184 189 193 197 199 201 202
298 295 292 292 292 289 286 284 282 280 279 285 291 294 301 310 308 300 288 273 251 222 220 244 257 245 250 276 286 268 258 254 258 266 258 246 239 231 222 213 206 204 206 212 219 203 186 182 181 192 200 183 128 128 141 245 245 307 59 164 201 163 166 261 283 268 125 102 184 187 137 181 220 177 169 177 181 176 172 175 180 185 190 193 196 199 202 203
298 295 294 292 291 291 287 283 284 281 281 284 288 294 307 314 308 298 280 249 205 185 213 224 205 243 252 259 270 270 274 264 263 265 246 232 226 225 223 215 205 198 196 192 187 170 168 180 166 146 186 179 165 156 182 215 185 172 152 141 174 151 146 225 252 281 61 101 162 174 134 18 192 169 171 182 186 183 180 179 183 187 189 192 197 201 204 203
298 293 293 291 290 292 288 285 284 282 283 284 287 298 314 318 312 313 256 181 161 161 211 201 191 190 272 275 287 280 265 265 277 272 242 223 215 214 212 212 207 193 181 160 174 168 159 160 146 172 197 184 183 170 178 185 147 158 167 141 152 160 214 250 246 270 54 97 138 180 165 128 175 185 182 185 186 186 186 180 178 182 185 189 197 206 210 205
299 293 290 290 290 290 289 288 284 281 283 283 290 306 327 335 327 360 152 189 201 216 236 205 201 215 260 281 295 296 272 269 277 260 231 215 206 200 198 201 195 184 173 148 172 171 158 167 206 193 181 163 168 158 156 152 133 142 135 122 146 158 237 265 261 288 314 107 224 203 155 151 178 192 197 188 185 186 189 182 176 181 184 189 196 203 213 208
301 294 289 288 289 289 287 287 283 279 279 280 292 307 320 326 315 338 313 262 251 245 245 245 229 234 259 267 269 287 296 291 269 232 212 207 192 187 188 184 168 179 189 151 137 149 161 193 212 180 161 154 157 153 146 130 109 114 121 128 125 149 233 260 260 300 311 128 276 219 135 176 193 196 200 185 181 188 189 184 186 188 189 194 196 198 208 209
302 297 291 286 285 288 286 284 285 278 274 276 287 298 303 304 289 297 306 289 281 270 252 248 246 248 258 260 261 273 285 290 268 237 213 196 192 189 178 170 167 179 175 150 123 135 180 209 180 162 157 137 133 152 154 161 154 128 120 124 128 218 254 281 297 317 323 140 252 218 154 216 226 209 207 188 182 191 192 190 190 189 189 197 197 195 201 205
301 300 295 288 283 286 285 284 284 275 270 271 278 293 306 311 308 308 306 292 286 279 256 242 239 240 248 254 255 253 238 236 255 246 222 193 194 194 177 168 169 161 165 182 169 158 191 213 172 157 139 119 113 155 154 167 182 157 145 143 193 249 178 258 305 323 320 100 183 168 151 268 276 243 229 210 196 196 195 188 178 175 179 194 199 196 197 199
300 300 297 292 286 284 285 284 280 272 266 266 276 295 303 293 312 322 301 281 282 277 260 246 237 233 240 249 247 229 216 219 233 236 219 194 190 189 185 170 150 165 188 186 172 164 194 193 161 147 138 133 126 151 154 161 184 181 172 162 172 209 190 206 282 325 340 1 90 114 57 315 279 205 224 226 218 209 188 160 136 145 166 187 196 193 193 197
297 299 297 294 289 284 286 288 279 268 264 268 280 289 278 281 305 322 282 274 279 274 267 245 232 235 238 239 232 212 213 225 230 229 217 197 190 177 173 171 163 189 189 165 151 165 232 196 153 145 150 151 140 158 170 159 161 205 207 179 169 173 192 229 321 17 35 354 315 104 70 295 292 236 215 202 201 202 174 150 141 146 167 188 192 187 191 205
294 297 297 294 290 285 287 289 278 266 264 270 276 239 248 302 303 240 194 289 282 243 179 188 205 228 221 204 197 188 193 241 235 230 220 202 194 181 160 172 180 188 167 150 149 174 218 196 149 150 157 156 157 174 185 161 142 208 222 181 166 150 155 173 60 59 91 247 278 89 152 252 309 275 234 195 187 190 170 152 154 158 171 185 186 183 189 203
290 292 296 293 288 284 284 284 271 265 254 231 256 247 259 306 271 180 157 323 282 184 139 176 183 183 195 187 178 163 130 236 224 228 219 202 194 194 188 178 172 166 147 142 186 200 175 166 149 154 155 159 174 177 185 156 132 221 217 167 156 139 149 153 97 83 211 251 310 19 125 197 288 262 235 190 193 195 169 146 153 170 177 179 178 178 180 192
285 288 295 293 287 279 278 279 267 262 246 235 281 269 266 283 188 166 126 352 253 149 129 175 174 160 186 178 172 167 175 169 168 216 209 196 191 195 206 204 164 153 167 165 188 211 153 168 163 149 161 178 178 161 159 146 139 230 200 161 162 151 154 157 123 163 287 353 301 304 141 175 269 272 231 163 194 204 177 157 166 179 180 174 169 172 177 189
279 286 293 292 288 277 275 279 266 260 252 265 295 273 265 270 194 170 56 279 214 146 120 156 160 149 141 159 180 197 236 152 145 184 185 187 192 193 215 206 159 148 178 163 169 205 165 180 174 154 170 186 158 147 152 151 166 206 155 125 128 125 128 137 143 170 81 44 247 249 186 174 271 281 196 167 197 205 185 167 178 182 179 172 167 174 185 192
277 285 291 292 290 278 275 276 265 261 259 280 299 283 272 256 184 125 44 232 274 25 110 155 166 146 138 144 195 226 249 298 116 150 160 175 187 196 206 181 155 135 152 94 162 215 292 173 178 165 160 162 152 152 161 162 155 142 127 94 78 72 72 86 90 109 105 267 246 213 175 172 261 275 200 187 202 197 188 178 181 176 169 168 173 183 189 188
274 280 286 292 288 277 275 276 275 270 254 284 311 298 267 233 155 117 167 270 346 1 46 102 141 135 146 154 190 212 235 298 117 146 153 159 177 196 181 168 161 125 136 130 183 248 345 133 180 172 153 149 137 140 169 169 152 133 128 113 98 28 30 45 9 54 168 248 260 206 169 163 217 254 219 219 218 193 188 178 166 165 167 172 178 185 184 181
271 276 284 290 282 273 270 276 286 276 247 307 329 295 224 216 167 178 230 323 4 323 354 33 121 138 162 195 175 181 202 227 172 167 164 154 167 199 185 179 177 148 174 180 159 242 268 174 289 205 163 159 141 127 165 173 160 147 135 133 133 108 101 178 255 194 217 241 265 220 152 161 231 247 227 220 226 210 199 188 175 172 175 178 180 182 179 178
277 277 285 288 277 271 268 277 283 260 248 309 324 165 206 243 197 200 262 316 37 350 333 339 311 266 177 202 210 180 204 213 178 172 167 154 154 200 230 206 163 142 172 163 128 146 286 305 285 259 172 172 158 152 167 175 175 170 161 158 161 154 167 203 219 218 254 247 295 320 158 218 255 284 318 263 300 3 108 157 175 180 181 177 176 176 174 172
299 288 289 283 273 272 276 292 286 253 254 301 308 171 219 231 216 198 246 322 356 340 325 321 309 274 183 203 199 151 178 249 179 156 161 156 157 190 223 212 168 121 108 138 145 155 161 261 227 183 213 184 168 168 158 143 164 178 144 136 156 159 163 193 200 193 236 248 309 304 184 213 206 268 320 326 29 65 88 78 96 177 192 175 167 168 167 165
323 307 298 286 277 275 276 289 277 241 245 282 224 212 228 188 251 284 29 348 349 337 319 312 307 224 172 220 201 154 179 234 161 145 161 167 170 183 183 189 179 130 121 156 190 165 167 235 242 193 197 182 169 171 135 125 161 204 112 118 169 181 146 132 180 177 175 195 266 221 198 223 178 221 293 106 81 88 114 115 101 62 257 172 161 161 159 159
325 315 305 299 285 264 258 260 233 196 204 257 192 242 258 211 135 72 9 355 352 328 319 314 332 66 88 217 187 185 200 202 142 135 152 160 164 180 174 175 171 148 136 153 186 169 153 250 284 190 192 194 168 167 159 151 165 166 148 167 184 162 125 109 177 164 99 156 242 230 303 307 351 330 169 122 99 93 109 115 109 83 35 142 156 162 156 153
337 333 313 303 280 260 241 201 177 171 180 183 184 238 273 328 39 78 359 338 319 293 311 329 21 37 27 311 226 193 187 173 141 134 141 161 172 178 179 186 170 162 154 139 174 205 144 203 262 165 184 222 175 165 179 171 150 137 191 195 136 97 95 107 137 8 69 178 255 324 253 284 7 239 176 129 119 129 128 113 110 109 93 96 126 154 150 147
342 343 337 347 269 243 191 167 160 165 172 178 230 257 297 313 1 70 77 343 313 282 304 333 339 28 44 14 333 214 175 180 208 133 144 182 219 176 171 182 174 173 179 152 129 205 146 153 260 188 179 209 166 156 181 192 160 145 175 183 138 145 219 117 136 166 153 196 277 316 256 240 194 196 184 150 151 155 144 132 122 126 123 110 113 125 137 147
343 344 359 350 299 221 172 157 152 162 169 172 232 251 316 296 333 33 48 57 305 293 314 332 342 11 12 341 317 304 158 166 188 140 144 170 242 185 172 170 169 183 190 172 141 188 151 126 267 247 183 160 130 159 184 203 237 95 141 171 168 164 181 156 146 162 158 181 252 293 348 259 232 195 178 176 173 164 155 151 147 145 140 131 132 137 143 153
346 344 350 349 312 176 155 142 142 156 181 240 231 231 310 294 324 356 25 54 1 297 306 333 347 356 325 317 311 323 45 132 162 149 163 166 98 195 190 171 159 177 186 187 189 176 101 129 220 282 209 154 172 207 185 174 160 128 149 177 182 143 115 140 150 126 133 155 193 223 267 257 258 210 181 182 177 172 163 151 147 145 140 139 144 148 149 150
344 325 344 7 114 150 139 131 136 165 222 254 253 221 285 310 335 349 24 38 358 285 304 318 314 307 300 306 308 324 23 59 136 131 242 185 130 162 212 182 155 155 160 187 214 198 99 158 184 233 193 173 194 202 165 164 164 153 161 182 172 137 111 147 210 247 113 128 164 172 240 261 265 280 211 177 167 170 155 140 135 134 135 139 143 145 145 143
338 302 340 7 137 150 133 120 144 225 210 269 301 292 298 324 339 349 16 15 343 277 325 314 274 262 252 245 282 311 358 33 129 157 183 192 185 196 202 179 159 156 154 164 203 197 138 133 132 192 217 205 220 217 167 169 164 150 172 182 155 143 147 163 197 210 127 92 107 133 228 274 265 291 276 154 143 133 132 135 132 130 134 137 136 134 135 137
325 308 334 349 167 157 137 105 183 202 234 303 310 305 312 316 303 339 2 346 320 6 332 301 268 260 236 221 280 307 305 30 160 186 194 204 219 220 194 176 162 158 157 161 184 185 162 126 127 241 299 292 267 310 136 159 152 154 191 178 158 172 170 161 174 171 152 159 132 87 269 271 284 331 77 120 126 122 124 129 127 126 128 129 131 133 133 133
317 308 334 152 174 174 176 330 157 203 272 301 303 300 303 281 255 292 321 259 273 16 329 285 251 241 236 218 241 282 301 328 170 222 204 197 234 219 186 176 169 161 165 182 179 167 181 177 115 120 25 43 128 45 51 161 166 178 194 183 177 158 121 110 135 128 178 197 156 135 231 263 314 78 101 111 119 117 120 128 128 124 126 130 133 136 138 139
325 325 44 131 174 188 225 322 102 197 262 301 310 299 287 275 252 252 252 243 219 212 257 267 262 271 279 263 238 304 291 199 182 295 301 241 272 225 164 172 175 171 183 184 168 153 169 194 139 135 140 148 171 187 191 179 175 196 182 178 179 156 146 148 125 137 215 218 148 157 210 242 173 134 127 121 124 123 125 130 132 131 134 137 138 138 141 143
332 348 53 106 176 198 247 300 314 307 252 274 312 305 264 262 295 271 253 245 233 225 238 259 270 284 276 251 144 327 293 251 228 301 334 278 270 314 93 157 177 188 200 179 159 144 123 181 164 159 171 180 189 210 218 156 152 184 180 173 177 170 160 141 123 172 194 164 172 214 183 155 171 158 143 139 135 131 134 135 136 140 141 140 142 143 145 148
332 318 37 83 186 213 259 287 296 302 283 250 296 331 324 300 318 309 236 223 252 249 248 247 241 256 268 242 139 326 312 331 315 283 299 262 268 303 334 117 156 194 205 175 158 141 88 186 188 173 193 209 195 213 245 188 173 177 166 170 174 163 148 136 159 195 158 137 218 247 165 158 182 174 159 156 148 142 144 143 143 144 144 144 145 146 148 150
349 333 349 52 233 218 251 266 255 249 270 285 318 335 325 305 301 302 229 246 260 248 243 251 220 233 261 247 134 76 320 342 346 322 304 296 326 338 340 86 111 209 200 170 165 146 112 189 208 172 192 230 238 245 247 184 171 155 153 166 167 163 164 161 181 192 154 154 218 204 169 176 189 176 168 161 151 143 141 143 144 144 145 147 147 147 148 147
357 343 331 336 306 279 264 260 244 237 255 270 280 264 268 280 279 259 215 257 280 231 202 242 281 251 270 247 112 137 217 42 350 311 308 338 347 6 15 13 329 343 137 158 174 156 131 190 198 162 172 233 358 310 253 151 129 66 112 165 170 174 178 167 170 176 149 148 200 168 159 167 192 166 155 136 134 134 134 139 143 145 147 149 149 148 148 147
354 334 315 315 300 270 255 257 266 260 251 251 254 245 232 255 272 276 239 212 266 258 199 247 294 304 320 46 83 171 208 175 253 266 268 357 357 21 51 212 267 0 46 153 177 183 164 201 188 150 151 343 6 6 19 135 134 95 68 32 75 146 154 130 142 149 115 86 90 124 131 114 58 128 124 127 132 132 136 143 147 149 151 150 149 149 148 148
346 336 319 297 283 259 236 229 203 218 250 237 233 245 247 243 261 316 305 226 226 251 247 241 292 326 4 30 52 265 258 233 225 243 257 278 280 301 339 221 211 13 20 125 166 173 157 147 69 117 135 268 350 31 36 76 98 96 65 24 35 123 155 154 159 163 147 127 110 108 133 191 165 131 126 134 137 137 142 149 150 152 154 152 150 148 148 149
347 345 338 308 280 301 285 269 211 213 233 205 209 229 255 267 298 340 322 265 237 239 216 156 113 36 16 355 289 283 302 290 267 273 285 285 278 283 285 246 176 111 94 79 66 137 143 134 120 121 139 240 340 22 38 73 90 100 353 358 343 241 186 200 217 202 163 139 131 150 192 171 147 139 139 145 149 149 153 156 154 154 153 152 150 149 149 150
Height
1502 1501 1499 1498 1497 1497 1495 1494 1493 1492 1491 1490 1489 1488 1487 1486 1485 1484 1483 1482 1481 1480 1479 1478 1477 1476 1474 1473 1472 1472 1471 1471 1472 1471 1470 1469 1472 1474 1475 1476 1477 1477 1478 1478 1479 1480 1481 1482 1483 1483 1485 1486 1488 1489 1490 1492 1493 1494 1496 1501 1501 1500 1497 1492 1492 1491 1488 1487 1487 1486 1485 1486 1484 1482 1480 1479 1480 1479 1480 1481 1481 1483 1484 1485 1487 1489 1492 1495
1501 1500 1499 1498 1497 1496 1495 1494 1492 1491 1490 1489 1488 1487 1486 1485 1484 1483 1482 1481 1480 1480 1478 1477 1476 1475 1473 1472 1471 1470 1469 1469 1469 1468 1468 1468 1469 1471 1472 1473 1474 1475 1476 1477 1478 1479 1480 1481 1482 1483 1484 1485 1487 1488 1489 1490 1491 1492 1496 1499 1496 1494 1492 1489 1488 1488 1487 1487 1486 1486 1485 1485 1484 1482 1481 1481 1483 1482 1481 1483 1484 1484 1485 1487 1488 1490 1492 1495
1500 1499 1498 1497 1496 1495 1494 1493 1492 1491 1490 1489 1487 1486 1485 1484 1484 1483 1482 1480 1479 1479 1478 1476 1475 1474 1473 1471 1470 1469 1468 1468 1466 1465 1466 1465 1466 1468 1469 1470 1471 1473 1474 1475 1476 1478 1479 1480 1481 1482 1483 1484 1486 1487 1488 1489 1490 1490 1493 1496 1492 1490 1489 1487 1487 1487 1487 1487 1487 1486 1485 1484 1482 1482 1480 1481 1483 1484 1481 1481 1483 1485 1485 1485 1487 1490 1493 1495
1499 1498 1497 1496 1495 1494 1493 1492 1491 1490 1489 1488 1486 1485 1484 1483 1483 1482 1481 1480 1479 1478 1477 1476 1474 1473 1472 1470 1470 1468 1468 1467 1463 1462 1463 1462 1464 1466 1465 1467 1469 1470 1471 1473 1475 1477 1478 1479 1480 1481 1482 1484 1485 1486 1487 1487 1488 1489 1489 1490 1488 1488 1488 1486 1485 1486 1486 1487 1487 1486 1485 1483 1481 1481 1480 1480 1484 1485 1481 1476 1475 1478 1480 1483 1486 1489 1492 1494
1498 1497 1496 1495 1494 1493 1492 1491 1490 1489 1488 1486 1485 1484 1483 1482 1482 1481 1480 1479 1478 1477 1476 1475 1474 1472 1471 1470 1469 1468 1469 1466 1459 1459 1460 1461 1462 1462 1462 1464 1466 1467 1469 1471 1474 1475 1476 1478 1479 1481 1482 1483 1484 1485 1485 1485 1486 1487 1486 1486 1486 1487 1487 1484 1485 1485 1485 1486 1487 1487 1485 1482 1480 1481 1480 1479 1482 1482 1479 1477 1475 1473 1475 1478 1483 1488 1492 1493
1497 1496 1495 1494 1493 1492 1491 1490 1489 1488 1486 1485 1484 1483 1482 1481 1480 1480 1479 1478 1477 1476 1475 1474 1473 1472 1470 1469 1469 1468 1468 1461 1456 1458 1458 1459 1460 1459 1460 1461 1464 1466 1467 1470 1472 1474 1475 1477 1478 1479 1481 1482 1483 1483 1483 1484 1485 1486 1485 1484 1484 1485 1485 1484 1484 1484 1485 1486 1486 1486 1484 1482 1480 1481 1481 1479 1479 1478 1477 1479 1478 1476 1476 1477 1481 1486 1489 1491
1495 1494 1493 1492 1492 1490 1489 1489 1488 1487 1485 1484 1483 1482 1481 1480 1479 1478 1477 1477 1476 1474 1474 1473 1472 1471 1469 1468 1467 1468 1467 1459 1455 1458 1458 1458 1458 1457 1457 1459 1461 1463 1465 1468 1470 1472 1473 1475 1477 1478 1480 1481 1482 1482 1482 1483 1484 1485 1485 1483 1483 1483 1483 1483 1483 1483 1484 1485 1485 1485 1484 1482 1480 1480 1480 1479 1478 1477 1478 1479 1480 1481 1481 1482 1484 1486 1488 1491
1492 1492 1491 1491 1490 1489 1488 1487 1486 1485 1484 1483 1482 1481 1480 1479 1477 1476 1476 1475 1474 1473 1473 1472 1472 1471 1469 1468 1467 1467 1463 1456 1455 1457 1457 1458 1458 1457 1456 1457 1460 1462 1464 1466 1468 1470 1472 1474 1476 1477 1479 1480 1480 1481 1481 1483 1484 1484 1483 1481 1482 1482 1482 1482 1481 1481 1482 1482 1483 1484 1483 1481 1479 1479 1479 1479 1478 1478 1478 1479 1481 1483 1484 1486 1487 1488 1490 1493
1490 1490 1489 1489 1488 1488 1487 1486 1485 1484 1483 1481 1480 1479 1478 1477 1476 1474 1474 1473 1473 1472 1471 1471 1471 1470 1469 1467 1468 1466 1456 1451 1454 1456 1456 1457 1457 1457 1457 1456 1458 1460 1463 1465 1468 1470 1471 1473 1474 1476 1477 1478 1479 1479 1480 1482 1483 1481 1480 1481 1481 1480 1480 1480 1480 1480 1480 1480 1481 1483 1482 1480 1479 1478 1479 1480 1479 1479 1480 1481 1482 1484 1486 1487 1488 1490 1492 1494
1488 1487 1487 1487 1486 1486 1485 1484 1483 1482 1481 1480 1479 1478 1477 1475 1474 1473 1472 1472 1472 1471 1471 1471 1470 1469 1468 1467 1468 1464 1452 1450 1454 1454 1455 1455 1456 1458 1458 1457 1457 1459 1462 1464 1467 1469 1470 1472 1473 1475 1476 1477 1478 1479 1479 1480 1480 1478 1479 1480 1479 1479 1479 1479 1479 1478 1479 1478 1479 1481 1481 1479 1478 1478 1480 1480 1479 1480 1481 1482 1484 1486 1487 1488 1489 1491 1493 1495
1485 1485 1485 1484 1484 1483 1483 1482 1481 1480 1479 1478 1477 1476 1475 1474 1472 1471 1471 1471 1470 1470 1470 1469 1469 1469 1467 1466 1467 1459 1449 1450 1452 1451 1453 1454 1455 1457 1458 1458 1457 1458 1461 1463 1466 1468 1470 1472 1473 1475 1476 1476 1477 1478 1478 1478 1478 1477 1478 1478 1478 1478 1478 1478 1477 1477 1478 1477 1476 1478 1480 1480 1479 1479 1479 1479 1479 1480 1481 1484 1486 1487 1489 1490 1490 1492 1494 1496
1483 1483 1482 1481 1481 1480 1480 1480 1479 1479 1477 1476 1475 1474 1473 1472 1471 1470 1469 1469 1468 1469 1468 1468 1468 1467 1466 1465 1459 1450 1448 1450 1450 1450 1451 1452 1454 1456 1457 1458 1458 1458 1460 1462 1465 1467 1469 1471 1473 1474 1475 1475 1476 1477 1477 1477 1477 1477 1477 1478 1477 1477 1476 1476 1475 1475 1476 1476 1474 1477 1482 1483 1480 1479 1479 1479 1480 1482 1483 1485 1487 1489 1490 1491 1492 1493 1495 1497
1481 1480 1479 1479 1478 1478 1478 1477 1477 1477 1476 1474 1473 1472 1471 1470 1469 1468 1467 1467 1466 1467 1467 1467 1466 1465 1466 1458 1446 1444 1449 1450 1449 1449 1450 1451 1452 1453 1456 1457 1457 1459 1460 1462 1464 1466 1468 1470 1472 1473 1473 1474 1475 1476 1476 1476 1476 1476 1476 1477 1477 1478 1477 1474 1473 1474 1474 1475 1472 1476 1486 1487 1481 1480 1479 1480 1480 1482 1484 1486 1488 1490 1491 1492 1492 1493 1495 1497
1479 1478 1477 1477 1476 1476 1475 1475 1475 1474 1473 1472 1471 1470 1469 1467 1467 1466 1465 1465 1464 1465 1465 1465 1465 1464 1463 1451 1441 1445 1448 1448 1448 1447 1449 1450 1450 1452 1454 1456 1457 1458 1459 1461 1464 1465 1467 1469 1471 1472 1473 1473 1474 1475 1476 1476 1476 1476 1477 1478 1481 1483 1479 1472 1473 1474 1473 1473 1471 1475 1486 1486 1482 1481 1480 1480 1480 1480 1482 1485 1488 1490 1491 1492 1492 1493 1495 1496
1476 1476 1475 1474 1474 1473 1473 1473 1472 1471 1471 1470 1469 1468 1466 1465 1464 1463 1463 1462 1462 1463 1463 1464 1463 1463 1461 1448 1441 1445 1445 1444 1446 1446 1448 1448 1448 1451 1452 1454 1456 1457 1459 1461 1462 1464 1466 1468 1470 1471 1472 1472 1474 1476 1477 1477 1477 1477 1479 1483 1485 1484 1480 1473 1472 1473 1471 1471 1470 1474 1483 1486 1484 1481 1480 1481 1481 1480 1482 1484 1487 1489 1490 1491 1492 1493 1494 1496
1474 1473 1473 1472 1471 1471 1470 1470 1470 1469 1469 1468 1467 1465 1464 1463 1462 1461 1460 1459 1460 1461 1461 1462 1461 1462 1461 1448 1442 1443 1442 1442 1443 1443 1445 1445 1447 1450 1451 1453 1455 1456 1459 1460 1462 1464 1465 1467 1468 1470 1471 1472 1474 1476 1479 1481 1480 1480 1481 1484 1485 1483 1481 1477 1471 1471 1471 1471 1471 1473 1480 1486 1484 1481 1481 1483 1482 1482 1483 1484 1486 1488 1489 1490 1491 1492 1493 1495
1472 1471 1470 1470 1469 1468 1468 1467 1467 1467 1467 1466 1464 1462 1461 1460 1458 1456 1455 1456 1457 1458 1460 1460 1460 1462 1456 1445 1440 1441 1440 1441 1441 1441 1442 1444 1446 1447 1450 1452 1453 1456 1457 1459 1461 1462 1465 1466 1467 1469 1470 1471 1473 1475 1482 1486 1484 1484 1482 1482 1484 1483 1483 1480 1472 1470 1471 1471 1473 1472 1476 1481 1480 1479 1482 1484 1484 1484 1483 1484 1486 1487 1489 1490 1491 1492 1493 1495
1470 1469 1468 1467 1467 1466 1465 1465 1465 1465 1465 1464 1462 1460 1460 1457 1454 1452 1451 1453 1455 1458 1460 1459 1461 1461 1448 1440 1440 1440 1439 1440 1439 1440 1441 1442 1444 1445 1448 1451 1452 1455 1456 1458 1460 1461 1464 1465 1467 1469 1469 1470 1471 1472 1479 1482 1480 1484 1483 1481 1483 1483 1483 1480 1474 1471 1471 1471 1473 1474 1476 1480 1480 1479 1480 1482 1483 1483 1483 1484 1485 1487 1490 1491 1493 1494 1494 1495
1467 1466 1466 1465 1465 1464 1463 1463 1463 1462 1462 1461 1460 1459 1458 1455 1452 1450 1450 1451 1453 1455 1455 1452 1453 1451 1440 1436 1440 1439 1438 1439 1439 1439 1440 1441 1442 1444 1447 1449 1451 1453 1454 1457 1459 1460 1462 1464 1467 1467 1466 1467 1468 1469 1473 1474 1474 1478 1479 1478 1479 1480 1482 1479 1474 1473 1472 1472 1473 1474 1476 1481 1482 1480 1480 1480 1481 1482 1483 1484 1486 1488 1489 1491 1494 1495 1496 1496
1465 1464 1463 1463 1462 1462 1461 1461 1461 1461 1460 1459 1458 1458 1456 1455 1453 1451 1451 1451 1449 1448 1447 1445 1444 1442 1437 1437 1438 1438 1438 1438 1438 1438 1439 1439 1441 1443 1445 1447 1450 1451 1452 1454 1457 1458 1460 1464 1465 1462 1462 1465 1467 1469 1471 1472 1472 1474 1476 1478 1478 1479 1479 1477 1474 1473 1472 1473 1475 1474 1476 1480 1481 1480 1478 1479 1480 1483 1484 1485 1486 1487 1488 1489 1491 1493 1495 1497
1462 1461 1461 1460 1460 1460 1459 1459 1459 1459 1458 1458 1457 1457 1456 1456 1455 1453 1451 1449 1446 1444 1443 1442 1442 1440 1436 1436 1437 1438 1439 1437 1436 1437 1438 1438 1440 1442 1443 1446 1448 1450 1451 1452 1455 1457 1459 1462 1461 1459 1461 1463 1466 1468 1470 1471 1472 1474 1476 1478 1481 1482 1479 1476 1475 1474 1473 1474 1476 1477 1477 1479 1480 1478 1477 1478 1480 1482 1483 1484 1485 1486 1488 1489 1489 1490 1494 1497
1460 1459 1458 1458 1457 1457 1457 1457 1457 1456 1456 1456 1456 1456 1456 1456 1455 1454 1452 1447 1442 1440 1439 1439 1440 1438 1433 1433 1435 1438 1441 1439 1436 1435 1437 1438 1439 1440 1441 1444 1446 1448 1450 1451 1453 1457 1459 1459 1458 1459 1460 1462 1466 1468 1469 1472 1473 1475 1478 1479 1482 1483 1480 1477 1475 1475 1473 1473 1477 1479 1477 1478 1479 1478 1477 1477 1477 1479 1479 1480 1482 1484 1487 1490 1490 1491 1494 1497
1458 1457 1456 1455 1455 1455 1455 1454 1454 1454 1454 1454 1454 1455 1455 1454 1454 1453 1452 1448 1439 1432 1433 1433 1434 1432 1429 1429 1433 1436 1439 1439 1436 1433 1435 1437 1437 1439 1440 1441 1445 1447 1449 1449 1450 1456 1459 1456 1455 1457 1459 1461 1466 1468 1469 1472 1474 1476 1478 1481 1482 1483 1482 1479 1476 1475 1474 1474 1477 1478 1478 1479 1480 1479 1479 1477 1476 1476 1478 1480 1483 1486 1488 1491 1493 1493 1494 1495
1456 1455 1454 1453 1453 1453 1452 1452 1452 1452 1452 1452 1453 1453 1453 1453 1452 1452 1451 1448 1439 1428 1425 1425 1426 1426 1423 1425 1430 1432 1434 1434 1433 1431 1433 1435 1436 1438 1439 1440 1444 1446 1446 1447 1449 1453 1454 1452 1452 1456 1458 1460 1465 1469 1470 1472 1477 1478 1478 1479 1480 1481 1480 1479 1477 1475 1474 1476 1476 1476 1479 1481 1481 1480 1480 1478 1478 1479 1480 1482 1485 1488 1489 1491 1493 1494 1496 1498
1454 1453 1452 1451 1451 1450 1450 1450 1449 1450 1450 1451 1452 1452 1452 1451 1450 1450 1449 1448 1440 1427 1420 1421 1422 1420 1418 1423 1427 1429 1431 1431 1429 1429 1431 1433 1434 1436 1438 1439 1442 1443 1445 1447 1450 1452 1452 1450 1450 1454 1457 1458 1462 1468 1469 1471 1477 1479 1478 1477 1476 1477 1478 1479 1478 1476 1478 1480 1477 1477 1483 1484 1482 1482 1479 1477 1479 1480 1481 1483 1486 1488 1489 1489 1489 1492 1497 1502
1452 1451 1450 1450 1449 1448 1449 1448 1447 1448 1449 1450 1450 1450 1450 1450 1449 1449 1449 1449 1440 1424 1418 1420 1420 1416 1416 1421 1424 1428 1432 1428 1424 1427 1429 1432 1434 1435 1437 1438 1438 1441 1444 1448 1451 1451 1450 1449 1449 1452 1455 1458 1461 1465 1467 1468 1475 1479 1475 1473 1474 1475 1478 1478 1477 1479 1483 1483 1478 1478 1484 1486 1486 1482 1478 1477 1478 1478 1480 1484 1487 1488 1488 1488 1488 1489 1495 1502
1450 1449 1449 1448 1447 1447 1448 1447 1446 1447 1447 1448 1449 1448 1449 1448 1448 1447 1448 1449 1436 1418 1416 1420 1418 1415 1415 1416 1419 1425 1428 1422 1419 1424 1426 1430 1432 1433 1436 1436 1436 1439 1441 1446 1450 1448 1446 1448 1450 1451 1454 1458 1461 1463 1464 1466 1473 1476 1471 1471 1473 1475 1478 1478 1478 1481 1483 1482 1479 1478 1481 1486 1486 1479 1476 1478 1479 1478 1479 1483 1487 1486 1487 1488 1490 1491 1495 1501
1448 1447 1447 1446 1446 1446 1446 1446 1445 1444 1445 1446 1446 1447 1447 1446 1447 1447 1448 1443 1424 1411 1413 1416 1416 1415 1414 1416 1418 1419 1419 1416 1417 1420 1423 1428 1431 1431 1434 1434 1434 1437 1437 1441 1447 1445 1443 1446 1449 1451 1454 1457 1458 1459 1461 1464 1468 1470 1468 1470 1471 1474 1476 1476 1479 1481 1482 1484 1483 1479 1480 1486 1485 1478 1476 1478 1480 1480 1478 1481 1484 1483 1484 1488 1490 1492 1494 1498
1446 1445 1445 1445 1444 1444 1444 1444 1443 1442 1443 1444 1445 1446 1445 1446 1446 1446 1448 1436 1414 1407 1410 1411 1414 1415 1415 1418 1419 1417 1416 1416 1416 1418 1421 1426 1429 1430 1432 1432 1433 1436 1437 1439 1443 1444 1442 1443 1445 1448 1453 1455 1455 1456 1459 1462 1464 1465 1467 1469 1471 1474 1476 1477 1481 1481 1484 1490 1485 1478 1480 1484 1484 1481 1480 1481 1480 1479 1477 1477 1479 1480 1483 1486 1488 1490 1491 1494
1444 1444 1444 1443 1442 1443 1443 1442 1442 1441 1442 1443 1444 1444 1444 1446 1445 1446 1448 1432 1411 1408 1410 1410 1413 1414 1415 1419 1421 1419 1417 1416 1415 1417 1421 1424 1427 1429 1430 1432 1433 1435 1438 1440 1441 1441 1440 1440 1442 1445 1448 1450 1452 1455 1457 1458 1461 1462 1465 1469 1474 1477 1477 1480 1482 1481 1488 1489 1480 1476 1477 1480 1483 1481 1479 1477 1473 1472 1473 1475 1477 1478 1482 1484 1484 1486 1488 1491
1442 1442 1442 1441 1441 1441 1441 1441 1441 1441 1442 1442 1442 1443 1444 1444 1443 1444 1440 1422 1411 1412 1411 1412 1414 1414 1416 1418 1419 1420 1419 1417 1416 1417 1420 1422 1426 1429 1429 1430 1432 1435 1440 1442 1442 1441 1440 1442 1443 1442 1443 1446 1450 1454 1456 1456 1458 1461 1463 1466 1475 1481 1480 1484 1486 1486 1491 1487 1477 1476 1476 1478 1483 1477 1473 1470 1464 1464 1467 1471 1474 1477 1480 1480 1480 1483 1486 1490
1440 1441 1440 1440 1440 1440 1440 1440 1440 1441 1441 1442 1442 1443 1443 1442 1441 1439 1428 1415 1415 1417 1412 1413 1415 1414 1416 1417 1417 1419 1418 1417 1417 1417 1418 1419 1424 1427 1426 1426 1428 1434 1441 1443 1444 1444 1442 1442 1443 1442 1442 1443 1447 1454 1459 1458 1457 1459 1462 1467 1478 1487 1488 1491 1491 1490 1491 1483 1478 1479 1477 1478 1477 1470 1468 1467 1463 1464 1464 1465 1469 1472 1476 1477 1479 1483 1486 1491
1439 1439 1439 1439 1439 1439 1439 1439 1440 1440 1441 1441 1442 1442 1442 1441 1436 1430 1424 1418 1419 1418 1414 1414 1414 1413 1416 1417 1416 1416 1417 1416 1415 1416 1417 1418 1424 1427 1425 1424 1424 1429 1437 1441 1444 1447 1447 1445 1442 1442 1443 1441 1443 1451 1458 1459 1458 1458 1461 1465 1475 1485 1492 1496 1494 1492 1489 1480 1478 1479 1477 1477 1473 1468 1469 1468 1466 1467 1466 1467 1470 1472 1475 1475 1478 1482 1486 1490
1438 1438 1438 1438 1438 1438 1438 1439 1439 1439 1440 1441 1441 1441 1442 1439 1431 1423 1423 1422 1419 1418 1416 1415 1414 1412 1413 1414 1412 1413 1417 1416 1413 1415 1417 1419 1424 1426 1424 1424 1424 1426 1432 1439 1444 1447 1450 1449 1443 1442 1443 1440 1440 1446 1450 1453 1457 1457 1457 1461 1469 1474 1479 1487 1489 1487 1485 1479 1479 1480 1477 1474 1471 1470 1471 1469 1468 1469 1467 1470 1473 1476 1480 1478 1479 1483 1484 1489
1438 1437 1437 1436 1437 1437 1437 1438 1438 1438 1441 1441 1440 1442 1439 1433 1427 1424 1425 1424 1422 1422 1418 1414 1413 1411 1412 1413 1411 1410 1413 1413 1412 1414 1416 1418 1421 1423 1423 1423 1424 1425 1429 1438 1443 1443 1446 1447 1439 1437 1440 1438 1440 1443 1443 1450 1458 1458 1457 1461 1465 1464 1465 1477 1484 1481 1478 1476 1476 1477 1477 1475 1470 1469 1470 1469 1469 1470 1468 1470 1473 1479 1483 1479 1480 1483 1483 1486
1437 1436 1436 1435 1436 1436 1436 1437 1437 1438 1440 1440 1441 1442 1435 1428 1426 1427 1428 1426 1426 1427 1422 1415 1411 1410 1412 1413 1410 1410 1409 1409 1411 1413 1416 1419 1420 1421 1422 1421 1423 1424 1425 1433 1440 1442 1446 1446 1438 1436 1439 1437 1439 1441 1441 1446 1454 1458 1459 1458 1458 1456 1458 1471 1482 1484 1479 1475 1475 1476 1476 1475 1472 1469 1470 1470 1470 1470 1471 1471 1472 1477 1483 1482 1483 1485 1484 1485
1436 1435 1435 1434 1435 1435 1435 1436 1437 1438 1440 1440 1441 1439 1433 1427 1426 1428 1429 1428 1428 1428 1425 1421 1414 1412 1416 1414 1410 1409 1408 1409 1410 1411 1416 1419 1418 1419 1420 1419 1421 1423 1423 1428 1435 1438 1442 1444 1438 1436 1439 1437 1436 1439 1440 1441 1445 1453 1459 1455 1453 1457 1459 1463 1475 1483 1482 1476 1476 1480 1479 1475 1473 1470 1469 1470 1472 1472 1472 1472 1472 1474 1482 1485 1485 1487 1486 1486
1436 1435 1434 1434 1434 1434 1435 1436 1437 1438 1439 1441 1440 1436 1432 1429 1426 1427 1429 1428 1428 1427 1426 1424 1418 1415 1418 1416 1412 1409 1408 1410 1411 1410 1414 1417 1416 1415 1417 1418 1420 1421 1422 1425 1430 1433 1436 1441 1439 1434 1436 1437 1436 1439 1443 1442 1441 1445 1450 1449 1452 1461 1465 1466 1472 1478 1482 1480 1477 1480 1484 1480 1473 1470 1469 1469 1470 1472 1472 1472 1472 1473 1479 1483 1483 1487 1489 1488
1437 1436 1435 1435 1434 1434 1435 1436 1436 1438 1440 1441 1440 1436 1433 1431 1427 1426 1428 1428 1428 1427 1426 1424 1420 1418 1419 1417 1415 1412 1408 1409 1412 1411 1412 1414 1413 1413 1413 1415 1418 1421 1422 1423 1427 1430 1432 1437 1439 1434 1432 1435 1437 1440 1444 1444 1443 1443 1446 1448 1449 1455 1459 1464 1470 1471 1473 1479 1477 1477 1481 1476 1467 1465 1466 1466 1466 1467 1468 1469 1470 1471 1475 1479 1481 1484 1488 1490
1437 1436 1436 1434 1433 1433 1435 1436 1437 1438 1440 1439 1438 1435 1433 1431 1428 1427 1427 1427 1427 1427 1426 1424 1423 1422 1420 1417 1416 1413 1409 1409 1410 1411 1410 1410 1411 1413 1412 1412 1415 1419 1421 1423 1425 1428 1430 1434 1438 1436 1433 1435 1437 1436 1436 1441 1444 1444 1447 1451 1450 1452 1454 1458 1466 1467 1466 1472 1477 1477 1475 1467 1462 1461 1460 1461 1463 1464 1463 1464 1468 1471 1473 1478 1481 1482 1485 1489
1438 1437 1436 1435 1434 1434 1435 1437 1438 1439 1439 1437 1435 1434 1432 1430 1428 1427 1427 1427 1427 1427 1426 1425 1425 1425 1423 1420 1417 1414 1412 1410 1409 1410 1409 1408 1410 1412 1410 1409 1412 1416 1420 1423 1424 1426 1429 1433 1436 1437 1436 1435 1432 1429 1430 1435 1438 1440 1445 1449 1450 1451 1454 1459 1466 1469 1467 1468 1474 1475 1468 1460 1461 1461 1458 1459 1462 1464 1465 1465 1469 1473 1475 1479 1483 1484 1484 1487
1438 1438 1437 1436 1436 1436 1437 1438 1439 1439 1438 1436 1434 1433 1431 1429 1429 1428 1427 1428 1427 1426 1426 1425 1424 1424 1423 1421 1417 1415 1413 1410 1409 1409 1408 1408 1408 1407 1406 1406 1409 1413 1417 1422 1423 1423 1426 1430 1434 1435 1434 1432 1429 1427 1429 1430 1433 1437 1439 1443 1447 1448 1449 1455 1462 1465 1467 1470 1475 1475 1466 1458 1462 1462 1458 1459 1462 1465 1468 1468 1471 1476 1478 1481 1484 1487 1489 1490
1439 1438 1437 1437 1437 1437 1438 1439 1439 1438 1437 1435 1433 1432 1431 1430 1429 1428 1428 1428 1428 1427 1427 1426 1424 1422 1421 1420 1418 1416 1414 1411 1409 1408 1407 1407 1404 1403 1404 1405 1407 1410 1414 1419 1421 1422 1424 1428 1432 1432 1431 1430 1428 1427 1428 1428 1432 1437 1437 1438 1443 1444 1443 1446 1451 1455 1461 1466 1470 1471 1465 1459 1461 1462 1459 1460 1463 1466 1469 1471 1473 1477 1480 1484 1487 1489 1492 1494
1439 1438 1437 1437 1438 1438 1439 1439 1439 1438 1436 1435 1433 1432 1431 1430 1429 1429 1429 1429 1428 1428 1429 1427 1423 1421 1420 1419 1418 1417 1415 1412 1410 1408 1407 1407 1403 1401 1403 1404 1406 1408 1411 1414 1416 1419 1424 1429 1432 1434 1436 1436 1436 1434 1433 1432 1432 1433 1435 1436 1437 1440 1442 1445 1448 1451 1455 1460 1461 1460 1461 1461 1461 1462 1461 1462 1464 1467 1471 1474 1476 1478 1482 1486 1489 1491 1493 1494
1438 1438 1437 1438 1438 1439 1439 1438 1438 1438 1436 1436 1434 1432 1431 1430 1428 1428 1428 1428 1428 1429 1430 1426 1422 1421 1419 1418 1418 1417 1415 1413 1411 1409 1408 1407 1403 1401 1403 1404 1406 1407 1408 1410 1411 1415 1422 1427 1429 1433 1439 1442 1441 1437 1434 1433 1432 1430 1431 1433 1436 1438 1439 1442 1447 1450 1452 1460 1460 1452 1454 1463 1464 1463 1462 1464 1466 1468 1472 1475 1477 1480 1483 1485 1488 1491 1493 1495
1439 1439 1438 1439 1440 1440 1439 1438 1437 1437 1436 1436 1435 1432 1431 1430 1428 1427 1427 1427 1427 1428 1428 1424 1422 1420 1418 1416 1418 1418 1415 1413 1412 1410 1408 1407 1403 1402 1403 1404 1405 1406 1407 1408 1410 1414 1421 1425 1425 1427 1430 1432 1430 1427 1427 1428 1429 1429 1430 1432 1434 1436 1435 1438 1444 1446 1448 1457 1458 1451 1454 1464 1466 1463 1463 1465 1467 1469 1472 1474 1477 1481 1483 1486 1488 1491 1494 1497
1440 1440 1439 1440 1440 1440 1439 1438 1437 1437 1436 1435 1434 1432 1431 1431 1429 1427 1427 1426 1426 1426 1425 1422 1420 1419 1417 1416 1417 1417 1415 1413 1412 1410 1409 1407 1405 1403 1403 1403 1404 1405 1406 1408 1409 1412 1419 1423 1423 1423 1423 1425 1425 1425 1428 1427 1424 1426 1429 1431 1433 1435 1435 1437 1439 1441 1445 1450 1453 1454 1460 1462 1461 1461 1461 1462 1464 1467 1471 1473 1476 1480 1483 1486 1489 1491 1494 1498
1441 1440 1440 1440 1439 1439 1438 1437 1436 1436 1435 1435 1434 1433 1432 1431 1431 1429 1428 1426 1424 1425 1424 1420 1418 1418 1418 1416 1415 1416 1416 1415 1412 1410 1409 1407 1406 1405 1403 1402 1404 1404 1405 1408 1408 1410 1416 1420 1423 1423 1423 1426 1429 1428 1428 1427 1424 1424 1425 1427 1431 1434 1432 1431 1434 1439 1440 1439 1441 1449 1457 1458 1457 1457 1457 1459 1462 1465 1470 1474 1477 1481 1484 1486 1489 1492 1495 1498
1442 1441 1440 1440 1439 1437 1437 1436 1435 1435 1436 1435 1435 1433 1432 1432 1430 1428 1427 1426 1424 1423 1423 1421 1418 1417 1417 1415 1414 1417 1418 1416 1413 1412 1410 1408 1408 1407 1405 1404 1404 1403 1404 1407 1408 1409 1413 1417 1421 1421 1421 1425 1429 1428 1426 1425 1425 1428 1431 1431 1430 1431 1428 1426 1432 1440 1439 1437 1440 1447 1454 1458 1456 1456 1459 1462 1464 1467 1471 1476 1479 1481 1484 1487 1489 1492 1494 1497
1445 1444 1442 1441 1439 1436 1435 1435 1435 1435 1435 1435 1434 1432 1431 1430 1429 1426 1425 1426 1425 1422 1420 1420 1417 1416 1416 1415 1414 1415 1415 1415 1415 1414 1412 1411 1410 1409 1408 1407 1406 1405 1405 1406 1408 1408 1411 1417 1420 1418 1419 1424 1427 1427 1427 1423 1423 1429 1437 1438 1434 1432 1432 1429 1433 1441 1440 1442 1449 1452 1456 1460 1457 1456 1461 1464 1466 1469 1472 1476 1479 1481 1484 1486 1489 1492 1494 1497
1446 1445 1443 1442 1439 1435 1435 1435 1435 1436 1435 1435 1434 1432 1430 1428 1427 1426 1424 1422 1422 1421 1418 1418 1417 1416 1416 1416 1415 1415 1414 1413 1414 1413 1412 1412 1411 1410 1410 1409 1408 1407 1406 1407 1408 1407 1410 1417 1420 1417 1420 1425 1427 1430 1431 1427 1427 1430 1435 1441 1439 1436 1435 1434 1436 1439 1437 1441 1452 1456 1455 1457 1456 1456 1460 1464 1467 1470 1473 1476 1479 1481 1484 1486 1488 1492 1495 1497
1445 1443 1442 1442 1439 1435 1434 1434 1433 1434 1433 1432 1431 1429 1428 1426 1425 1427 1426 1421 1419 1419 1418 1417 1418 1418 1417 1417 1416 1415 1413 1413 1412 1412 1411 1411 1410 1409 1409 1410 1409 1408 1408 1408 1409 1408 1408 1413 1418 1419 1422 1427 1430 1432 1432 1428 1429 1433 1437 1444 1445 1442 1441 1439 1438 1440 1437 1439 1447 1447 1443 1447 1452 1454 1459 1463 1465 1468 1471 1474 1477 1480 1484 1487 1489 1492 1495 1498